Time,TemperatureF,DewpointF,PressureIn,WindDirection,WindDirectionDegrees,WindSpeedMPH,WindSpeedGustMPH,Humidity,HourlyPrecipIn,Conditions,Clouds,dailyrainin,SoftwareType,DateUTC
2013-06-28 00:06:00,78.5,77.0,29.60,ESE,104,0.0,-999.0,96,-99.99,,,0.00,weatherlink.com 1.10,2013-06-28 04:06:00,
2013-06-28 00:21:00,78.5,77.0,29.60,ESE,104,0.0,-999.0,96,-99.99,,,0.00,weatherlink.com 1.10,2013-06-28 04:21:00,
2013-06-28 00:36:00,78.3,77.0,29.60,ESE,104,0.0,-999.0,97,-99.99,,,0.00,weatherlink.com 1.10,2013-06-28 04:36:00,
2013-06-28 00:51:00,78.3,77.0,29.60,ESE,104,0.0,-999.0,97,-99.99,,,0.00,weatherlink.com 1.10,2013-06-28 04:51:00,
2013-06-28 01:06:00,78.3,77.0,29.59,ESE,104,0.0,-999.0,97,-99.99,,,0.00,weatherlink.com 1.10,2013-06-28 05:06:00,
2013-06-28 01:21:00,78.6,78.0,29.59,ESE,104,0.0,-999.0,97,-99.99,,,0.00,weatherlink.com 1.10,2013-06-28 05:21:00,
2013-06-28 01:36:00,78.6,78.0,29.59,ESE,104,0.0,-999.0,97,-99.99,,,0.00,weatherlink.com 1.10,2013-06-28 05:36:00,
2013-06-28 01:51:00,79.0,78.0,29.58,ESE,104,0.0,-999.0,97,-99.99,,,0.00,weatherlink.com 1.10,2013-06-28 05:51:00,
2013-06-28 02:06:00,79.0,78.0,29.57,ESE,104,0.0,-999.0,97,-99.99,,,0.00,weatherlink.com 1.10,2013-06-28 06:06:00,
2013-06-28 02:21:00,78.8,78.0,29.56,ESE,104,0.0,-999.0,97,-99.99,,,0.00,weatherlink.com 1.10,2013-06-28 06:21:00,
2013-06-28 02:36:00,78.8,78.0,29.56,ESE,104,0.0,-999.0,97,-99.99,,,0.00,weatherlink.com 1.10,2013-06-28 06:36:00,
2013-06-28 02:51:00,78.6,78.0,29.55,ESE,104,0.0,-999.0,97,-99.99,,,0.00,weatherlink.com 1.10,2013-06-28 06:51:00,
2013-06-28 03:06:00,78.6,78.0,29.56,ESE,104,0.0,-999.0,98,-99.99,,,0.00,weatherlink.com 1.10,2013-06-28 07:06:00,
2013-06-28 03:21:00,78.5,78.0,29.56,ESE,104,0.0,-999.0,98,-99.99,,,0.00,weatherlink.com 1.10,2013-06-28 07:21:00,
2013-06-28 03:36:00,78.6,78.0,29.55,ESE,104,0.0,-999.0,98,-99.99,,,0.00,weatherlink.com 1.10,2013-06-28 07:36:00,
2013-06-28 03:51:00,78.5,78.0,29.55,ESE,104,0.0,-999.0,98,-99.99,,,0.00,weatherlink.com 1.10,2013-06-28 07:51:00,
2013-06-28 04:06:00,78.5,78.0,29.55,SE,125,0.0,-999.0,98,-99.99,,,0.00,weatherlink.com 1.10,2013-06-28 08:06:00,
2013-06-28 04:21:00,78.5,78.0,29.55,SE,125,0.0,-999.0,98,-99.99,,,0.00,weatherlink.com 1.10,2013-06-28 08:21:00,
2013-06-28 04:36:00,78.5,78.0,29.55,SE,125,0.0,-999.0,98,-99.99,,,0.00,weatherlink.com 1.10,2013-06-28 08:36:00,
2013-06-28 04:51:00,78.5,78.0,29.56,SE,125,0.0,-999.0,98,-99.99,,,0.00,weatherlink.com 1.10,2013-06-28 08:51:00,
2013-06-28 05:06:00,78.5,78.0,29.55,SE,125,0.0,-999.0,98,-99.99,,,0.00,weatherlink.com 1.10,2013-06-28 09:06:00,
2013-06-28 05:21:00,78.3,78.0,29.55,SE,125,0.0,-999.0,98,-99.99,,,0.00,weatherlink.com 1.10,2013-06-28 09:21:00,
2013-06-28 05:36:00,78.1,78.0,29.55,SE,125,0.0,-999.0,98,-99.99,,,0.00,weatherlink.com 1.10,2013-06-28 09:36:00,
2013-06-28 05:51:00,77.9,77.0,29.56,SE,125,0.0,-999.0,98,-99.99,,,0.00,weatherlink.com 1.10,2013-06-28 09:51:00,
2013-06-28 06:06:00,78.3,78.0,29.56,SE,125,0.0,-999.0,98,-99.99,,,0.00,weatherlink.com 1.10,2013-06-28 10:06:00,
2013-06-28 06:21:00,78.3,78.0,29.56,SE,126,0.0,-999.0,98,-99.99,,,0.00,weatherlink.com 1.10,2013-06-28 10:21:00,
2013-06-28 06:36:00,78.8,78.0,29.57,SE,126,0.0,-999.0,98,-99.99,,,0.00,weatherlink.com 1.10,2013-06-28 10:36:00,
2013-06-28 06:51:00,79.0,78.0,29.57,SE,136,0.0,-999.0,98,-99.99,,,0.00,weatherlink.com 1.10,2013-06-28 10:51:00,
2013-06-28 07:06:00,79.4,79.0,29.57,SE,136,0.0,-999.0,98,-99.99,,,0.00,weatherlink.com 1.10,2013-06-28 11:06:00,
2013-06-28 07:21:00,79.4,79.0,29.57,SE,136,0.0,-999.0,98,-99.99,,,0.00,weatherlink.com 1.10,2013-06-28 11:21:00,
2013-06-28 07:36:00,79.8,79.0,29.57,SE,137,0.0,-999.0,98,-99.99,,,0.00,weatherlink.com 1.10,2013-06-28 11:36:00,
2013-06-28 07:51:00,80.1,80.0,29.57,SE,135,0.0,-999.0,98,-99.99,,,0.00,weatherlink.com 1.10,2013-06-28 11:51:00,
2013-06-28 08:06:00,80.5,80.0,29.56,SE,135,0.0,-999.0,97,-99.99,,,0.00,weatherlink.com 1.10,2013-06-28 12:06:00,
2013-06-28 08:21:00,80.7,80.0,29.57,NE,39,0.0,-999.0,96,-99.99,,,0.00,weatherlink.com 1.10,2013-06-28 12:21:00,
2013-06-28 08:36:00,81.1,80.0,29.56,SSE,166,0.0,-999.0,95,-99.99,,,0.00,weatherlink.com 1.10,2013-06-28 12:36:00,
2013-06-28 08:51:00,81.8,80.0,29.56,North,350,0.0,-999.0,94,-99.99,,,0.00,weatherlink.com 1.10,2013-06-28 12:51:00,
2013-06-28 09:06:00,82.6,80.0,29.56,North,350,0.0,-999.0,92,-99.99,,,0.00,weatherlink.com 1.10,2013-06-28 13:06:00,
2013-06-28 09:21:00,83.2,80.0,29.55,NE,46,1.0,-999.0,90,-99.99,,,0.00,weatherlink.com 1.10,2013-06-28 13:21:00,
2013-06-28 09:36:00,83.8,81.0,29.55,East,86,0.0,-999.0,90,-99.99,,,0.00,weatherlink.com 1.10,2013-06-28 13:36:00,
2013-06-28 09:51:00,84.5,80.0,29.55,SW,215,0.0,-999.0,85,-99.99,,,0.00,weatherlink.com 1.10,2013-06-28 13:51:00,
2013-06-28 10:06:00,85.9,80.0,29.54,SSE,155,0.0,-999.0,83,-99.99,,,0.00,weatherlink.com 1.10,2013-06-28 14:06:00,
2013-06-28 10:21:00,86.7,80.0,29.55,SW,223,0.0,-999.0,79,-99.99,,,0.00,weatherlink.com 1.10,2013-06-28 14:21:00,
2013-06-28 10:36:00,88.2,81.0,29.55,SSW,212,0.0,-999.0,80,-99.99,,,0.00,weatherlink.com 1.10,2013-06-28 14:36:00,
2013-06-28 10:51:00,88.8,82.0,29.55,NW,314,0.0,-999.0,80,-99.99,,,0.00,weatherlink.com 1.10,2013-06-28 14:51:00,
2013-06-28 11:06:00,89.9,81.0,29.55,East,101,0.0,-999.0,76,-99.99,,,0.00,weatherlink.com 1.10,2013-06-28 15:06:00,
2013-06-28 11:21:00,90.5,80.0,29.55,SE,146,0.0,-999.0,72,-99.99,,,0.00,weatherlink.com 1.10,2013-06-28 15:21:00,
2013-06-28 11:36:00,91.4,80.0,29.55,SE,140,0.0,-999.0,70,-99.99,,,0.00,weatherlink.com 1.10,2013-06-28 15:36:00,
2013-06-28 11:51:00,90.5,80.0,29.55,SE,125,0.0,-999.0,72,-99.99,,,0.00,weatherlink.com 1.10,2013-06-28 15:51:00,
2013-06-28 12:06:00,91.6,82.0,29.55,East,100,0.0,-999.0,73,-99.99,,,0.00,weatherlink.com 1.10,2013-06-28 16:06:00,
2013-06-28 12:21:00,90.7,79.0,29.55,East,81,0.0,-999.0,68,-99.99,,,0.00,weatherlink.com 1.10,2013-06-28 16:21:00,
2013-06-28 12:36:00,91.2,79.0,29.55,SE,144,0.0,-999.0,67,-99.99,,,0.00,weatherlink.com 1.10,2013-06-28 16:36:00,
2013-06-28 12:51:00,92.1,81.0,29.54,NNE,19,0.0,-999.0,69,-99.99,,,0.00,weatherlink.com 1.10,2013-06-28 16:51:00,
2013-06-28 13:06:00,92.1,78.0,29.54,SSW,198,0.0,-999.0,64,-99.99,,,0.00,weatherlink.com 1.10,2013-06-28 17:06:00,
2013-06-28 13:21:00,92.1,78.0,29.53,ESE,107,0.0,-999.0,64,-99.99,,,0.00,weatherlink.com 1.10,2013-06-28 17:21:00,
2013-06-28 13:36:00,92.1,79.0,29.52,WSW,248,2.0,-999.0,66,-99.99,,,0.00,weatherlink.com 1.10,2013-06-28 17:36:00,
2013-06-28 13:51:00,92.9,80.0,29.53,SE,140,0.0,-999.0,66,-99.99,,,0.00,weatherlink.com 1.10,2013-06-28 17:51:00,
2013-06-28 14:06:00,93.4,79.0,29.52,NNW,338,0.0,-999.0,63,-99.99,,,0.00,weatherlink.com 1.10,2013-06-28 18:06:00,
2013-06-28 14:21:00,94.0,79.0,29.51,SE,130,0.0,-999.0,62,-99.99,,,0.00,weatherlink.com 1.10,2013-06-28 18:21:00,
2013-06-28 14:36:00,94.0,79.0,29.50,SE,128,0.0,-999.0,61,-99.99,,,0.00,weatherlink.com 1.10,2013-06-28 18:36:00,
2013-06-28 14:51:00,93.8,80.0,29.48,SE,125,0.0,-999.0,65,-99.99,,,0.00,weatherlink.com 1.10,2013-06-28 18:51:00,
2013-06-28 15:06:00,94.3,79.0,29.48,ESE,119,2.0,-999.0,62,-99.99,,,0.00,weatherlink.com 1.10,2013-06-28 19:06:00,
2013-06-28 15:21:00,92.9,79.0,29.48,North,5,4.0,-999.0,65,-99.99,,,0.00,weatherlink.com 1.10,2013-06-28 19:21:00,
2013-06-28 15:36:00,91.8,78.0,29.48,ESE,102,0.0,-999.0,65,-99.99,,,0.00,weatherlink.com 1.10,2013-06-28 19:36:00,
2013-06-28 15:51:00,91.0,79.0,29.47,ESE,118,0.0,-999.0,67,-99.99,,,0.00,weatherlink.com 1.10,2013-06-28 19:51:00,
2013-06-28 16:06:00,90.1,80.0,29.48,SE,143,0.0,-999.0,71,-99.99,,,0.00,weatherlink.com 1.10,2013-06-28 20:06:00,
2013-06-28 16:21:00,89.3,78.0,29.46,SE,140,0.0,-999.0,70,-99.99,,,0.00,weatherlink.com 1.10,2013-06-28 20:21:00,
2013-06-28 18:51:00,78.5,77.0,29.48,ESE,103,0.0,-999.0,96,-99.99,,,0.80,weatherlink.com 1.10,2013-06-28 22:51:00,
2013-06-28 19:06:00,77.0,76.0,29.50,ESE,106,1.0,-999.0,96,-99.99,,,0.83,weatherlink.com 1.10,2013-06-28 23:06:00,
2013-06-28 19:21:00,75.6,74.0,29.54,NNW,344,0.0,-999.0,96,-99.99,,,0.92,weatherlink.com 1.10,2013-06-28 23:21:00,
2013-06-28 19:36:00,74.0,73.0,29.55,SSE,158,0.0,-999.0,96,-99.99,,,1.02,weatherlink.com 1.10,2013-06-28 23:36:00,
2013-06-28 19:51:00,73.7,73.0,29.52,SSE,158,0.0,-999.0,97,-99.99,,,1.13,weatherlink.com 1.10,2013-06-28 23:51:00,
2013-06-28 20:06:00,74.0,73.0,29.51,SSE,158,0.0,-999.0,97,-99.99,,,1.23,weatherlink.com 1.10,2013-06-29 00:06:00,
2013-06-28 20:21:00,74.2,73.0,29.52,SSE,158,1.0,-999.0,97,-99.99,,,1.33,weatherlink.com 1.10,2013-06-29 00:21:00,
2013-06-28 20:36:00,74.4,74.0,29.50,ESE,107,0.0,-999.0,97,-99.99,,,1.41,weatherlink.com 1.10,2013-06-29 00:36:00,
2013-06-28 20:51:00,74.4,74.0,29.51,ESE,107,0.0,-999.0,98,-99.99,,,1.48,weatherlink.com 1.10,2013-06-29 00:51:00,
2013-06-28 21:06:00,74.7,74.0,29.53,ESE,107,0.0,-999.0,98,-99.99,,,1.54,weatherlink.com 1.10,2013-06-29 01:06:00,
2013-06-28 21:21:00,74.7,74.0,29.52,ESE,107,0.0,-999.0,98,-99.99,,,1.59,weatherlink.com 1.10,2013-06-29 01:21:00,
2013-06-28 21:36:00,75.1,75.0,29.52,ESE,107,2.0,-999.0,98,-99.99,,,1.64,weatherlink.com 1.10,2013-06-29 01:36:00,
2013-06-28 21:51:00,75.1,75.0,29.54,SE,130,0.0,-999.0,98,-99.99,,,1.68,weatherlink.com 1.10,2013-06-29 01:51:00,
2013-06-28 22:06:00,75.1,75.0,29.54,SE,130,0.0,-999.0,98,-99.99,,,1.72,weatherlink.com 1.10,2013-06-29 02:06:00,
2013-06-28 22:21:00,75.1,75.0,29.54,SE,130,0.0,-999.0,98,-99.99,,,1.76,weatherlink.com 1.10,2013-06-29 02:21:00,
2013-06-28 22:36:00,75.3,75.0,29.54,SE,130,0.0,-999.0,98,-99.99,,,1.79,weatherlink.com 1.10,2013-06-29 02:36:00,
2013-06-28 22:51:00,75.1,75.0,29.54,SE,130,0.0,-999.0,98,-99.99,,,1.82,weatherlink.com 1.10,2013-06-29 02:51:00,
2013-06-28 23:06:00,75.1,75.0,29.54,SE,130,0.0,-999.0,98,-99.99,,,1.85,weatherlink.com 1.10,2013-06-29 03:06:00,
2013-06-28 23:21:00,75.1,75.0,29.54,SE,130,0.0,-999.0,98,-99.99,,,1.87,weatherlink.com 1.10,2013-06-29 03:21:00,
2013-06-28 23:36:00,75.1,75.0,29.55,SE,130,0.0,-999.0,98,-99.99,,,1.89,weatherlink.com 1.10,2013-06-29 03:36:00,
2013-06-28 23:51:00,75.1,75.0,29.54,SE,130,0.0,-999.0,98,-99.99,,,1.91,weatherlink.com 1.10,2013-06-29 03:51:00,